When you browse on this site, cookies collect data to enhance your experience and personalize the content and advertising you see.
Visit our Privacy Policy to learn more. By continuing to use the site, you agree to this use of cookies and data.
  • En España
  • Lista de países
  • Para 7 días
  • Temperatura del agua
  • El tiempo en el mapa
  • Informadores
  • user-avatar
    Iniciar sesión

    Tiempo cada hora Kremenec

    Hoy, 4 Abril, Sábado

    Tiempo Temperatura Precipitaciones Viento Presión Humedad
    00:00 +4°C° 0 mm 2 mps 731 mmHg 81%
    01:00 +2°C° 0 mm 3 mps 731 mmHg 82%
    02:00 +2°C° 0 mm 2 mps 732 mmHg 79%
    03:00 +2°C° 0 mm 2 mps 732 mmHg 80%
    04:00 +1°C° 0 mm 2 mps 733 mmHg 80%
    05:00 +1°C° 0 mm 2 mps 733 mmHg 81%
    06:00 +2°C° 0 mm 2 mps 734 mmHg 76%
    07:00 +3°C° 0 mm 2 mps 734 mmHg 71%
    08:00 +4°C° 0 mm 2 mps 735 mmHg 65%
    09:00 +5°C° 0 mm 2 mps 736 mmHg 58%
    10:00 +6°C° 0 mm 2 mps 736 mmHg 51%
    11:00 +8°C° 0 mm 3 mps 736 mmHg 44%
    12:00 +8°C° 0 mm 3 mps 737 mmHg 43%
    13:00 +8°C° 0 mm 3 mps 737 mmHg 42%
    14:00 +9°C° 0 mm 3 mps 737 mmHg 41%
    15:00 +9°C° 0 mm 3 mps 737 mmHg 43%
    16:00 +9°C° 0 mm 3 mps 737 mmHg 45%
    17:00 +8°C° 0 mm 3 mps 737 mmHg 46%
    18:00 +7°C° 0 mm 2 mps 738 mmHg 52%
    19:00 +6°C° 0 mm 2 mps 738 mmHg 57%
    20:00 +5°C° 0 mm 2 mps 738 mmHg 62%
    21:00 +5°C° 0 mm 1 mps 739 mmHg 63%
    22:00 +5°C° 0 mm 1 mps 740 mmHg 64%
    23:00 +4°C° 0 mm 1 mps 740 mmHg 65%

    Mañana, 5 Abril, Domingo

    Tiempo Temperatura Precipitaciones Viento Presión Humedad
    00:00 +4°C° 0 mm 1 mps 740 mmHg 65%
    01:00 +3°C° 0 mm 1 mps 741 mmHg 65%
    02:00 +3°C° 0 mm 1 mps 741 mmHg 66%
    03:00 +3°C° 0 mm 1 mps 741 mmHg 66%
    04:00 +2°C° 0 mm 1 mps 741 mmHg 66%
    05:00 +1°C° 0 mm 0 mps 742 mmHg 66%
    06:00 +2°C° 0 mm 0 mps 742 mmHg 62%
    07:00 +3°C° 0 mm 0 mps 743 mmHg 57%
    08:00 +4°C° 0 mm 0 mps 743 mmHg 52%
    09:00 +7°C° 0 mm 1 mps 743 mmHg 47%
    10:00 +8°C° 0 mm 1 mps 744 mmHg 42%
    11:00 +8°C° 0 mm 2 mps 744 mmHg 37%
    12:00 +9°C° 0 mm 2 mps 744 mmHg 36%
    13:00 +9°C° 0 mm 2 mps 744 mmHg 35%
    14:00 +10°C° 0 mm 2 mps 744 mmHg 35%
    15:00 +10°C° 0 mm 3 mps 744 mmHg 36%
    16:00 +10°C° 0 mm 3 mps 744 mmHg 37%
    17:00 +10°C° 0 mm 3 mps 743 mmHg 37%
    18:00 +8°C° 0 mm 2 mps 744 mmHg 42%
    19:00 +7°C° 0 mm 2 mps 744 mmHg 47%
    20:00 +6°C° 0 mm 2 mps 744 mmHg 51%
    21:00 +5°C° 0 mm 2 mps 744 mmHg 53%
    22:00 +4°C° 0 mm 2 mps 744 mmHg 54%
    23:00 +4°C° 0 mm 2 mps 744 mmHg 55%

    Pasado mañana, 6 Abril, Lunes

    Tiempo Temperatura Precipitaciones Viento Presión Humedad
    00:00 +3°C° 0 mm 2 mps 744 mmHg 55%
    01:00 +3°C° 0 mm 2 mps 745 mmHg 56%
    02:00 +3°C° 0 mm 2 mps 745 mmHg 57%
    03:00 +2°C° 0 mm 2 mps 745 mmHg 57%
    04:00 +2°C° 0 mm 2 mps 745 mmHg 58%
    05:00 +1°C° 0 mm 2 mps 745 mmHg 58%
    06:00 +2°C° 0 mm 3 mps 745 mmHg 55%
    07:00 +3°C° 0 mm 3 mps 745 mmHg 52%
    08:00 +4°C° 0 mm 4 mps 745 mmHg 50%
    09:00 +5°C° 0 mm 4 mps 745 mmHg 46%
    10:00 +7°C° 0 mm 4 mps 746 mmHg 42%
    11:00 +8°C° 0 mm 4 mps 746 mmHg 38%
    12:00 +10°C° 0 mm 4 mps 746 mmHg 36%
    13:00 +11°C° 0 mm 4 mps 746 mmHg 34%
    14:00 +12°C° 0 mm 4 mps 745 mmHg 32%
    15:00 +12°C° 0 mm 4 mps 745 mmHg 33%
    16:00 +12°C° 0 mm 3 mps 745 mmHg 34%
    17:00 +12°C° 0 mm 3 mps 745 mmHg 36%
    18:00 +10°C° 0 mm 3 mps 744 mmHg 40%
    19:00 +9°C° 0 mm 3 mps 744 mmHg 44%
    20:00 +7°C° 0 mm 2 mps 744 mmHg 49%
    21:00 +7°C° 0 mm 2 mps 744 mmHg 50%
    22:00 +6°C° 0 mm 2 mps 744 mmHg 50%
    23:00 +5°C° 0 mm 2 mps 744 mmHg 51%

    7 Abril, Martes

    Tiempo Temperatura Precipitaciones Viento Presión Humedad
    00:00 +5°C° 0 mm 2 mps 744 mmHg 52%
    01:00 +4°C° 0 mm 2 mps 744 mmHg 53%
    02:00 +4°C° 0 mm 2 mps 744 mmHg 54%
    03:00 +4°C° 0 mm 2 mps 744 mmHg 54%
    04:00 +3°C° 0 mm 2 mps 744 mmHg 54%
    05:00 +3°C° 0 mm 2 mps 744 mmHg 55%
    06:00 +3°C° 0 mm 3 mps 744 mmHg 52%
    07:00 +5°C° 0 mm 3 mps 745 mmHg 50%
    08:00 +7°C° 0 mm 3 mps 745 mmHg 48%
    09:00 +8°C° 0 mm 4 mps 745 mmHg 43%
    10:00 +11°C° 0 mm 4 mps 745 mmHg 39%
    11:00 +12°C° 0 mm 4 mps 745 mmHg 34%
    12:00 +13°C° 0 mm 4 mps 745 mmHg 32%
    13:00 +14°C° 0 mm 4 mps 745 mmHg 30%
    14:00 +16°C° 0 mm 3 mps 745 mmHg 27%
    15:00 +16°C° 0 mm 3 mps 744 mmHg 28%
    16:00 +16°C° 0 mm 3 mps 744 mmHg 29%
    17:00 +16°C° 0 mm 2 mps 744 mmHg 30%
    18:00 +14°C° 0 mm 2 mps 744 mmHg 34%
    19:00 +12°C° 0 mm 2 mps 743 mmHg 37%
    20:00 +9°C° 0 mm 2 mps 743 mmHg 41%
    21:00 +9°C° 0 mm 2 mps 743 mmHg 43%
    22:00 +8°C° 0 mm 2 mps 743 mmHg 44%
    23:00 +7°C° 0 mm 2 mps 743 mmHg 45%

    8 Abril, Miércoles

    Tiempo Temperatura Precipitaciones Viento Presión Humedad
    00:00 +7°C° 0 mm 2 mps 743 mmHg 46%
    01:00 +6°C° 0 mm 2 mps 743 mmHg 48%
    02:00 +6°C° 0 mm 2 mps 743 mmHg 49%
    03:00 +6°C° 0 mm 2 mps 743 mmHg 50%
    04:00 +5°C° 0 mm 2 mps 743 mmHg 51%
    05:00 +5°C° 0 mm 2 mps 742 mmHg 52%
    06:00 +6°C° 0 mm 2 mps 742 mmHg 50%
    07:00 +7°C° 0 mm 2 mps 742 mmHg 49%
    08:00 +9°C° 0 mm 2 mps 742 mmHg 47%
    09:00 +10°C° 0 mm 2 mps 742 mmHg 43%
    10:00 +13°C° 0 mm 2 mps 742 mmHg 38%
    11:00 +15°C° 0 mm 2 mps 742 mmHg 34%
    12:00 +16°C° 0 mm 2 mps 742 mmHg 33%
    13:00 +17°C° 0 mm 2 mps 741 mmHg 32%
    14:00 +17°C° 0 mm 2 mps 741 mmHg 31%
    15:00 +17°C° 0 mm 2 mps 740 mmHg 32%
    16:00 +17°C° 0 mm 2 mps 740 mmHg 34%
    17:00 +17°C° 0 mm 2 mps 740 mmHg 35%
    18:00 +15°C° 0 mm 2 mps 739 mmHg 40%
    19:00 +14°C° 0 mm 2 mps 739 mmHg 45%
    20:00 +12°C° 0 mm 1 mps 739 mmHg 51%
    21:00 +11°C° 0 mm 1 mps 739 mmHg 52%
    22:00 +11°C° 0 mm 1 mps 739 mmHg 54%
    23:00 +10°C° 0 mm 1 mps 739 mmHg 56%

    9 Abril, Jueves

    Tiempo Temperatura Precipitaciones Viento Presión Humedad
    00:00 +10°C° 0 mm 1 mps 738 mmHg 56%
    01:00 +8°C° 0 mm 2 mps 738 mmHg 57%
    02:00 +8°C° 0 mm 2 mps 738 mmHg 58%
    03:00 +7°C° 0 mm 2 mps 738 mmHg 60%
    04:00 +7°C° 0 mm 2 mps 738 mmHg 62%
    05:00 +6°C° 0 mm 2 mps 737 mmHg 63%
    06:00 +8°C° 0 mm 2 mps 737 mmHg 62%
    07:00 +9°C° 0 mm 2 mps 737 mmHg 60%
    08:00 +10°C° 0 mm 3 mps 737 mmHg 59%
    09:00 +12°C° 0 mm 3 mps 737 mmHg 54%
    10:00 +13°C° 0 mm 3 mps 737 mmHg 50%
    11:00 +15°C° 0 mm 4 mps 737 mmHg 46%
    12:00 +17°C° 0 mm 4 mps 737 mmHg 45%
    13:00 +17°C° 0 mm 4 mps 737 mmHg 44%
    14:00 +18°C° 0 mm 4 mps 736 mmHg 44%
    15:00 +17°C° 0 mm 5 mps 736 mmHg 43%
    16:00 +16°C° 0 mm 5 mps 736 mmHg 43%
    17:00 +16°C° 0 mm 5 mps 735 mmHg 43%
    18:00 +15°C° 0 mm 5 mps 735 mmHg 48%
    19:00 +13°C° 0 mm 4 mps 735 mmHg 53%
    20:00 +12°C° 0 mm 4 mps 735 mmHg 58%
    21:00 +11°C° 0 mm 4 mps 735 mmHg 63%
    22:00 +10°C° 0 mm 3 mps 735 mmHg 67%
    23:00 +9°C° 0 mm 3 mps 735 mmHg 71%
    Mostrar más